Location: Carrières
(48.9495°N, 2.0407°E)
Time: 08:45:55
(UTC+00:00)

deb Agena D - Visible Passes

Search period start: 24 July 2024 00:00
Search period end: 03 August 2024 00:00
Orbit: 913 x 957 km, 99.6° (Epoch: 23 July)

Date Brightness Start Highest point End Pass type
(mag) Time Alt. Az. Time Alt. Az. Time Alt. Az.
24 Jul ? 01:25:42 31° SSW 01:28:24 54° W 01:34:20 10° NNW visible
24 Jul ? 23:55:06 17° ESE 23:59:09 38° ENE 00:04:40 10° N visible
25 Jul ? 01:38:54 29° SSW 01:41:25 44° W 01:47:11 10° NNW visible
25 Jul ? 22:29:38 10° ENE 22:31:04 11° NE 22:32:32 10° NNE visible
26 Jul ? 00:08:17 21° SE 00:12:00 46° ENE 00:17:44 10° N visible
26 Jul ? 01:52:05 26° SW 01:54:28 35° W 01:59:59 10° NNW visible
26 Jul ? 22:41:07 10° ENE 22:43:45 13° NE 22:46:23 10° NNE visible
27 Jul ? 00:21:28 25° SE 00:24:52 56° ENE 00:30:46 10° N visible
27 Jul ? 02:05:16 23° SW 02:07:31 29° W 02:12:42 10° NW visible
27 Jul ? 22:53:02 10° E 22:56:26 16° NE 22:59:52 10° NNE visible
28 Jul ? 00:34:39 30° SE 00:37:45 69° ENE 00:43:45 10° NNW visible
28 Jul ? 02:18:26 19° WSW 02:20:37 23° W 02:25:20 10° NW visible
28 Jul ? 23:05:09 10° E 23:09:09 19° NE 23:13:10 10° N visible
29 Jul ? 00:47:49 34° SSE 00:50:39 83° ENE 00:56:44 10° NNW visible
29 Jul ? 02:31:37 16° WSW 02:33:43 19° W 02:37:51 10° NW visible
29 Jul ? 23:17:24 10° ESE 23:21:53 22° NE 23:26:23 10° N visible
30 Jul ? 01:00:59 37° S 01:03:35 81° WSW 01:09:40 10° NNW visible
30 Jul ? 02:44:47 13° WSW 02:46:51 15° W 02:50:09 10° NW visible
30 Jul ? 23:30:22 13° ESE 23:34:38 27° ENE 23:39:33 10° N visible
31 Jul ? 01:14:10 38° S 01:16:31 67° WSW 01:22:33 10° NNW visible
31 Jul ? 02:58:02 10° WSW 03:00:00 12° W 03:01:57 10° WNW visible
31 Jul ? 23:43:32 16° ESE 23:47:24 32° ENE 23:52:39 10° N visible
01 Aug ? 01:27:20 37° SSW 01:29:29 54° W 01:35:25 10° NNW visible
01 Aug ? 23:56:42 20° ESE 00:00:11 38° ENE 00:05:42 10° N visible
02 Aug ? 01:40:29 34° SW 01:42:27 44° W 01:48:13 10° NNW visible
02 Aug ? 22:30:38 10° ENE 22:32:04 11° NE 22:33:30 10° NNE visible
